Torna al catalogo

CZ-6A DEB

AttivoSSO
NORAD 54384·DEBRIS·🇨🇳 China

Lanciato Nov 11, 2022 da Taiyuan Satellite Launch Center

Loading…

Prossimi Passaggi (prossime 24 ore)

TLE

AggiornatoSource: Space-Track

Epoca: Sep 14, 2026, 11:34 UTC

1 54384U 22151DG  26257.48254079  .00000814  00000-0  37506-3 0  9993
2 54384  98.7603 273.1487 0034098 278.4321  81.2993 14.23536495198532

Traccia CZ-6A DEB in tempo reale con AllMySat

Download on the App Store